Welcome to the New NWS' Forecast!
Most changes are behind the scenes, but click here for differences you might notice.
Latest weather observations around

Auburn-Opelika Airport (KAUO)

Using English Units (Switch to International System of Units)
Date/ Time (CST) Wind (mph) Vis. (mi) Weather Sky Cond. Temp (°F) Rel. Humidity Wind Chill (°F) Heat Index (°F) Pressure Precip. (in)
Air Dwpt 6 hour Altimeter (inHg) Sea level (inHg) 1 hr 3 hr 6 hr
Max Min
Jan 21 17:56 ESE 3 10 Clear CLR 60 44     55%     30.18        
Jan 21 16:56 SE 3 10 Clear CLR 64 44     48%     30.17 30.25      
Jan 21 15:56 ESE 6 10 Clear CLR 67 44     44%     30.18 30.25      
Jan 21 14:56 S 9 10 Clear CLR 68 44     42%     30.17 30.24      
Jan 21 13:56 E 6 10 Clear CLR 69 45     42%     30.18 30.24      
Jan 21 12:56 5 10 Clear CLR 67 44     44%     30.21 30.28      
Jan 21 11:56 ESE 6 10 Clear CLR 65 44     47%     30.25 30.31      
Jan 21 10:56 6 10 Clear CLR 62 43     50%     30.29 30.36      
Jan 21 09:56 Calm 10 Clear CLR 58 42     55%     30.31 30.38      
Jan 21 08:56 SE 3 10 Clear CLR 54 42     64%     30.3 30.38      
Jan 21 07:56 SE 5 9 Clear CLR 47 41     80% 45   30.28 30.36      
Jan 21 07:54 ESE 3 1.25 Haze CLR 46 41     81% 45   30.28        
Jan 21 07:52 Calm 0.5 Clear CLR 46 41     81%     30.28        
Jan 21 07:44 Calm 0.75 Haze CLR 45 39     81%     30.28        
Jan 21 06:56 3 10 Clear CLR 38 36     92% 36   30.26 30.34      
Jan 21 05:56 Calm 10 Clear CLR 41 37     86%     30.25 30.32      
Jan 21 04:56 ESE 5 10 Clear CLR 41 36     82% 38   30.24 30.32      
Jan 21 03:56 Calm 10 Clear CLR 41 36     82%     30.24 30.32      
Jan 21 02:56 Calm 10 Clear CLR 39 36     89%     30.24 30.32      
Jan 21 01:56 SSE 3 10 Clear CLR 48 37     66% 47   30.23 30.31      
Jan 21 00:56 Calm 10 Clear CLR 44 37     76%     30.25 30.33      
Jan 20 23:56 S 3 10 Clear CLR 46 37     71% 45   30.25 30.33      
Jan 20 22:56 Calm 10 Clear CLR 44 37     76%     30.27 30.34      
Jan 20 21:56 Calm 10 Clear CLR 45 37     74%     30.27 30.35      
Jan 20 20:56 N 3 10 Clear CLR 45 37     74% 44   30.27 30.35      
Jan 20 19:56 Calm 10 Clear CLR 49 37     63%     30.28 30.35      
Jan 20 18:56 Calm 10 Clear CLR 50 38     63%     30.27 30.35      
Jan 20 17:56 Calm 10 Clear CLR 54 38     55%     30.26 30.34      
Jan 20 16:56 WSW 3 10 Clear CLR 57 38     49%     30.26 30.33      
Jan 20 15:56 SSW 6 10 Clear CLR 59 38     45%     30.25 30.33      
Jan 20 14:56 SW 5 10 Clear CLR 59 38     45%     30.25 30.32      
Jan 20 13:56 5 10 Clear CLR 58 37     46%     30.26 30.33      
Jan 20 12:56 3 10 Clear CLR 55 34     45%     30.27 30.35      
Jan 20 11:56 WSW 6 10 Partly Cloudy SCT043 53 29     39%     30.31 30.39      
Jan 20 10:56 W 6 10 Cloudy OVC041 51 30     44%     30.33 30.41      
Jan 20 09:56 NW 6 10 Cloudy OVC041 49 29     46% 46   30.34 30.42      
Jan 20 08:56 Calm 10 Cloudy OVC039 44 24     45%     30.32 30.39      
Jan 20 07:56 Calm 10 Cloudy OVC037 44 24     45%     30.3 30.37      
Jan 20 06:56 Calm 10 Cloudy OVC037 38 27     64%     30.29 30.36      
Jan 20 05:56 Calm 10 Cloudy OVC037 37 25     61%     30.29 30.36      
Jan 20 04:56 N 3 10 Clear CLR 32 24     72% 29   30.27 30.35      
Jan 20 03:56 N 5 10 Clear CLR 36 18     48% 32   30.28 30.36      
Jan 20 02:56 N 7 10 Clear CLR 34 19     54% 28   30.28 30.35      
Jan 20 01:56 NNW 7 10 Clear CLR 33 19     56% 27   30.27 30.34      
Jan 20 00:56 NNW 6 10 Clear CLR 36 17     46% 31   30.27 30.34      
Jan 19 23:56 NW 5 10 Clear CLR 36 17     46% 32   30.27 30.35      
Jan 19 22:56 WNW 5 10 Clear CLR 40 16     37% 37   30.28 30.35      
Jan 19 21:56 W 3 10 Clear CLR 40 16     37% 38   30.28 30.36      
Jan 19 20:56 Calm 10 Clear CLR 42 16     34%     30.28 30.36      
Jan 19 19:56 WSW 5 10 Clear CLR 42 15     33% 39   30.28 30.35      
Jan 19 18:56 SSW 3 10 Clear CLR 43 17     35% 41   30.27 30.34      
Jan 19 17:56 SW 5 10 Clear CLR 45 16     31% 43   30.26 30.33      
Jan 19 16:56 W 3 10 Clear CLR 49 16     27% 48   30.26 30.33      
Jan 19 15:56 WSW 7 10 Clear CLR 52 9     17%     30.26 30.34      
Jan 19 14:56 Calm 10 Clear CLR 52 6     15%     30.25 30.33      
Jan 19 13:56 3 10 Clear CLR 52 5     15%     30.27 30.35      
Jan 19 12:56 6 10 Clear CLR 50 9     19% 48   30.3 30.37      
Jan 19 11:56 WNW 3 10 Clear CLR 47 10     22% 46   30.33 30.41      
Jan 19 10:56 5 10 Clear CLR 43 12     28% 40   30.36 30.44      
Jan 19 08:56 NW 5 10 Clear CLR 34 16     47% 30   30.38 30.45      
Jan 19 07:56 NNW 3 10 Clear CLR 30 17     58% 27   30.36 30.43      
Jan 19 06:56 N 7 10 Clear CLR 26 14     60% 18   30.33 30.4      
Jan 19 05:56 NNW 8 10 Clear CLR 24 15     68% 15   30.33 30.41      
Jan 19 04:56 NNW 6 10 Clear CLR 24 16     71% 17   30.34 30.41      
Jan 19 03:56 NW 5 10 Clear CLR 25 16     68% 19   30.34 30.41      
Jan 19 02:56 Calm 10 Clear CLR 26 16     65%     30.34 30.42      
Jan 19 01:56 NNW 5 10 Clear CLR 25 16     68% 19   30.34 30.42      
Jan 19 00:56 WNW 3 10 Clear CLR 27 16     63% 23   30.34 30.42      
Jan 18 23:56 Calm 10 Clear CLR 28 20     71%     30.35 30.42      
Jan 18 22:56 N 3 10 Clear CLR 28 15     58% 24   30.36 30.43      
Jan 18 21:56 NNW 3 10 Clear CLR 29 16     58% 25   30.37 30.45      
Jan 18 19:56 NW 5 10 Clear CLR 31 17     56% 26   30.37 30.45      
Jan 18 18:56 NNW 6 10 Clear CLR 34 14     43% 29   30.37 30.45      
Notice The following observation data may not be complete
Jun 12 07:35   10 Mostly Cloudy BKN004          %              
Jun 11 03:56 ESE 7 10 Clear CLR 71 65     81%   72 30.11 30.13      
Jun 08 23:56 Calm 10 Clear   68 61     78%     29.92 29.96      
Jun 08 19:56 Calm 10 Mostly Cloudy BKN050 BKN065 76 61     60%   76 29.89 29.92      
Jun 08 14:56 Calm 10 Mostly Cloudy SCT055 BKN075 78 57     48%   78 29.89 29.93      
Jun 08 06:56 ENE 9 10 Clear CLR 66 58     75%     29.9 29.94      
Jun 08 01:56 E 6 10 Cloudy BKN020 BKN026 OVC036 68 65     90%     29.86 29.89      
Jun 07 11:56 NE 13 10 Cloudy OVC021 76 67     74%   77 29.81 29.84      
Jun 06 10:52 NE 6 10 Mostly Cloudy BKN014 BKN039 77 72     83%   78 29.8        
Jun 06 10:19 N 5 10 Mostly Cloudy SCT011 BKN016 BKN024 75 72     89%   77 29.82        
Jun 06 04:38 SSE 3 10 Cloudy SCT002 OVC100 70 70     100%     29.82        
Jun 05 22:56 SE 5 10 Light Rain SCT026 BKN036 OVC085 73 72     96%   75 29.86 29.89 0    
Jun 05 16:56 SW 8 10 Partly Cloudy FEW019 SCT075 SCT100 79 71     77%   82 29.83 29.86